COSMOS 2251 DEB, 34721

Orbit data source: Space-Track

COSMOS 2251 DEB, 34721 is space debris in LEO originally from a launch on Wed, 16 Jun 1993 UTC launched from the Plesetsk Missile And Space Complex (PKMTR). The debris from Iridium 33, an American commercial communications satellite, has been tracked extensively since its accidental collision with the defunct Russian satellite Cosmos 2251 in 2009. This event, occurring at high speed in low Earth orbit (LEO), generated thousands of pieces of space debris, significantly increasing the risk of further collisions. The Iridium 33 debris cloud has impacted space traffic management and orbital debris mitigation strategies, making it a subject of ongoing study in space situational awareness.

Loading next visibility...
Identifier
34721, 1993-036YP
Orbit
LEO
Country
Flag of CISCIS
Related business
Manufacturer
Unknown
Mission
Spacecraft
Bus & Motor
Unknown
Mass
Unknown
Launch date (UTC)
1993-06-16 (32 years ago)
Launch vehicle
Unknown
Launch site
Plesetsk Missile And Space Complex (PKMTR)
Object type
Payload
Rocket body
Debris
Shape & HBR
Unknown shape, 0.1 m
Radar Cross Section
Small (<0.1 m²)

Expand to show TLE details & history
Last TLE update: 1 day ago

TLE from 1 day ago
0 COSMOS 2251 DEB
1 34721U 93036YP  25300.75375659  .00001770  00000-0  10546-2 0  9998
2 34721  73.9233  46.0106 0221817 353.8832 158.6900 13.96549383845070
Epoch: 2025-10-27T18:05Z
TLE epoch observation values (Epoch: 2025-10-27T18:05:24.569Z)
Latitude
25.44824°
Longitude
-89.53474°
Altitude
1,059.506 km
Speed
7.248 km/s
True Right ascension
14h 32m 40s
True Declination
25° 19' 14"
Sunlit
Object was in daylight at epoch
Visualization orbit readout
Latitude
Unknown
Longitude
Unknown
Altitude
Unknown
Speed
Unknown
Apparent Right ascension
Unknown
Apparent Declination
Unknown
Sunlit
N/A
Visualization observer readout
Local Sidereal Time
17:32:16
Azimuth
Unknown
Elevation
Unknown
Doppler factor
Unknown
Orbital elements
Apogee altitude
1,064.962 km
Perigee altitude
741.926 km
Semi-major axis
7,281.581 km
Eccentricity
0.02218
Inclination
73.9233°
RAAN
46.0106°
Arg. of periapsis
353.8832°
True anomaly
159.59042°
Mean anomaly
158.69°
Eccentric anomaly
159.1425°
Mean motion
3.49305 °/min
Orbital period
103.06 mins
BSTAR
0.0010546

Documentation

Showing up to 5 results
|